KB3YCK-2 Weather Reports


Display with metric or nautical units.
time (UTC)temp
F
wind
direction
speed
MPH
gust
MPH
rain 1hr
in
rain 24hr
in
rain mn
in
humidity
%
barometer
mb
20260504100503 40 51 0.0 1.0 0.00 0.00 0.00 86 1015.3
20260504081005 40 9 0.0 3.0 0.00 0.00 0.00 83 1015.4
20260504080502 40 9 0.0 4.0 0.00 0.00 0.00 83 1015.3
20260504050510 44 51 0.0 3.0 0.00 0.00 0.00 75 1015.4
20260504050010 44 250 1.0 3.0 0.00 0.00 0.00 75 1015.3
20260504045507 44 265 0.0 3.0 0.00 0.00 0.00 75 1015.4
20260504045009 44 250 1.0 3.0 0.00 0.00 0.00 75 1015.4
20260504041002 44 265 0.0 3.0 0.00 0.00 0.00 75 1015.0
20260504040504 44 265 0.0 3.0 0.00 0.00 0.00 75 1015.0
20260504040003 44 325 1.0 3.0 0.00 0.00 0.00 75 1015.0
20260504035503 44 254 1.0 3.0 0.00 0.00 0.00 75 1015.0
20260504035003 43 309 1.0 3.0 0.00 0.00 0.00 76 1015.0
20260504034502 43 254 1.0 2.0 0.00 0.00 0.00 76 1015.0
20260504034002 43 279 0.0 2.0 0.00 0.00 0.00 76 1014.9
20260504033502 43 254 0.0 2.0 0.00 0.00 0.00 76 1014.9
20260504033003 43 265 1.0 2.0 0.00 0.00 0.00 77 1014.8
20260504032503 43 298 0.0 2.0 0.00 0.00 0.00 77 1014.7
20260504032002 43 265 0.0 2.0 0.00 0.00 0.00 77 1014.8
20260504031501 43 309 1.0 2.0 0.00 0.00 0.00 76 1014.8
20260504031004 43 265 1.0 2.0 0.00 0.00 0.00 76 1014.7
20260504030507 43 292 0.0 2.0 0.00 0.00 0.00 76 1014.7
20260504030003 43 265 0.0 1.0 0.00 0.00 0.00 75 1014.7
20260504025504 44 178 0.0 1.0 0.00 0.00 0.00 75 1014.6
20260504025002 44 93 0.0 1.0 0.00 0.00 0.00 75 1014.6
20260504024503 44 309 0.0 1.0 0.00 0.00 0.00 75 1014.7
20260504024008 44 265 0.0 1.0 0.00 0.00 0.00 74 1014.6
20260504023503 45 51 0.0 1.0 0.00 0.00 0.00 75 1014.7
20260504023003 45 51 0.0 1.0 0.00 0.00 0.00 74 1014.7
20260504022502 45 51 0.0 1.0 0.00 0.00 0.00 74 1014.7
20260504022002 45 9 0.0 1.0 0.00 0.00 0.00 73 1014.7
20260504021503 46 51 0.0 1.0 0.00 0.00 0.00 73 1014.7
20260504021001 46 9 0.0 1.0 0.00 0.00 0.00 73 1014.7
20260504020501 46 51 0.0 2.0 0.00 0.00 0.00 73 1014.8
20260504020002 46 265 0.0 2.0 0.00 0.00 0.00 73 1014.7
20260504015503 47 325 0.0 2.0 0.00 0.00 0.00 72 1014.8
20260504015004 47 51 0.0 1.0 0.00 0.00 0.00 71 1014.7
20260504014505 47 309 0.0 2.0 0.00 0.00 0.00 71 1014.7
20260504014004 48 9 0.0 2.0 0.00 0.00 0.00 70 1014.6
20260504013502 48 9 0.0 1.0 0.00 0.00 0.00 70 1014.6
20260504013004 48 51 0.0 1.0 0.00 0.00 0.00 70 1014.6
20260504012502 49 34 0.0 1.0 0.00 0.00 0.00 69 1014.6
20260504012003 49 93 0.0 2.0 0.00 0.00 0.00 69 1014.5
20260504011510 49 265 0.0 2.0 0.00 0.00 0.00 69 1014.5
20260504011001 50 265 0.0 2.0 0.00 0.00 0.00 68 1014.4
20260504010503 50 309 0.0 2.0 0.00 0.00 0.00 68 1014.4
20260504010003 51 265 0.0 2.0 0.00 0.00 0.00 67 1014.4
20260504005503 51 338 0.0 2.0 0.00 0.00 0.00 67 1014.3
20260504005004 51 265 1.0 2.0 0.00 0.00 0.00 66 1014.2
20260504004503 52 265 1.0 2.0 0.00 0.00 0.00 65 1014.2
20260504004008 52 265 0.0 2.0 0.00 0.00 0.00 64 1014.2
20260504003506 53 265 0.0 2.0 0.00 0.00 0.00 63 1014.2
20260504003006 53 93 0.0 2.0 0.00 0.00 0.00 63 1014.1
20260504002502 54 292 0.0 2.0 0.00 0.00 0.00 63 1014.0
20260504002009 54 265 0.0 2.0 0.00 0.00 0.00 60 1013.9
20260504001504 54 321 0.0 2.0 0.00 0.00 0.00 60 1013.9
20260504001002 55 282 0.0 2.0 0.00 0.00 0.00 59 1013.8
20260504000502 55 282 0.0 2.0 0.00 0.00 0.00 59 1013.8
20260504000004 55 247 0.0 2.0 0.00 0.00 0.00 58 1013.7
20260503235502 56 265 0.0 3.0 0.00 0.00 0.00 57 1013.7
20260503235003 56 137 0.0 4.0 0.00 0.00 0.00 55 1013.6
20260503234505 56 221 0.0 5.0 0.00 0.00 0.00 55 1013.6
20260503234009 56 9 1.0 7.0 0.00 0.00 0.00 56 1013.5
20260503233503 56 120 2.0 7.0 0.00 0.00 0.00 57 1013.4
20260503233003 57 265 1.0 7.0 0.00 0.00 0.00 55 1013.5
20260503232505 57 265 2.0 8.0 0.00 0.00 0.00 56 1013.5
20260503232003 57 217 2.0 8.0 0.00 0.00 0.00 55 1013.5
20260503231503 58 236 2.0 8.0 0.00 0.00 0.00 53 1013.4
20260503231003 58 221 1.0 8.0 0.00 0.00 0.00 53 1013.4
20260503230503 58 296 3.0 8.0 0.00 0.00 0.00 53 1013.4
20260503230008 58 309 3.0 10.0 0.00 0.00 0.00 52 1013.4
20260503225505 59 265 3.0 11.0 0.00 0.00 0.00 52 1013.4
20260503224511 59 292 3.0 8.0 0.00 0.00 0.00 51 1013.3
20260503224005 59 239 2.0 8.0 0.00 0.00 0.00 56 1013.3
20260503223503 59 216 3.0 11.0 0.00 0.00 0.00 51 1013.4
20260503223008 59 129 3.0 11.0 0.00 0.00 0.00 51 1013.4
20260503222503 59 73 3.0 10.0 0.00 0.00 0.00 51 1013.3
20260503222003 60 265 2.0 6.0 0.00 0.00 0.00 53 1013.4
20260503221503 60 9 1.0 6.0 0.00 0.00 0.00 53 1013.3
20260503221003 60 9 3.0 12.0 0.00 0.00 0.00 51 1013.4
20260503220503 60 255 3.0 12.0 0.00 0.00 0.00 50 1013.4
20260503220003 60 131 2.0 10.0 0.00 0.00 0.00 52 1013.4
20260503215502 60 265 2.0 13.0 0.00 0.00 0.00 52 1013.4
20260503215002 61 146 4.0 12.0 0.00 0.00 0.00 49 1013.4
20260503214511 61 309 2.0 10.0 0.00 0.00 0.00 52 1013.4
20260503214007 60 257 4.0 14.0 0.00 0.00 0.00 50 1013.3
20260503213506 61 123 2.0 14.0 0.00 0.00 0.00 51 1013.4
20260503213006 61 292 4.0 12.0 0.00 0.00 0.00 50 1013.5
20260503212504 61 178 1.0 10.0 0.00 0.00 0.00 52 1013.4
20260503212004 61 309 3.0 10.0 0.00 0.00 0.00 51 1013.3
20260503211510 61 202 3.0 12.0 0.00 0.00 0.00 51 1013.4
20260503211006 61 105 2.0 13.0 0.00 0.00 0.00 56 1013.4
20260503210507 60 24 4.0 13.0 0.00 0.00 0.00 50 1013.4
20260503210006 60 137 1.0 16.0 0.00 0.00 0.00 52 1013.5
20260503205503 60 332 7.0 14.0 0.00 0.00 0.00 50 1013.5
20260503205008 60 9 4.0 13.0 0.00 0.00 0.00 51 1013.4
20260503204510 60 296 3.0 14.0 0.00 0.00 0.00 53 1013.4
20260503204008 60 106 4.0 16.0 0.00 0.00 0.00 52 1013.5
20260503203504 60 142 3.0 16.0 0.00 0.00 0.00 53 1013.5
20260503202503 60 286 3.0 14.0 0.00 0.00 0.00 54 1013.6
20260503202007 59 108 2.0 14.0 0.00 0.00 0.00 54 1013.6
20260503201513 59 93 4.0 11.0 0.00 0.00 0.00 56 1013.8
20260503201004 59 22 5.0 13.0 0.00 0.00 0.00 54 1013.7
20260503200504 59 76 5.0 16.0 0.00 0.00 0.00 54 1013.7
20260503200012 59 344 5.0 16.0 0.00 0.00 0.00 55 1013.8
20260503195508 60 19 3.0 18.0 0.00 0.00 0.00 57 1013.9
20260503195004 59 216 3.0 18.0 0.00 0.00 0.00 54 1013.8
20260503194508 59 19 4.0 14.0 0.00 0.00 0.00 56 1013.9
20260503194005 59 41 3.0 13.0 0.00 0.00 0.00 53 1013.9
20260503193505 59 40 6.0 13.0 0.00 0.00 0.00 57 1013.8
20260503193004 59 242 2.0 16.0 0.00 0.00 0.00 59 1014.0
20260503192505 58 144 4.0 16.0 0.00 0.00 0.00 59 1014.1
20260503192007 58 254 3.0 18.0 0.00 0.00 0.00 60 1014.2
20260503191527 57 321 4.0 20.0 0.00 0.00 0.00 57 1014.1
20260503191004 58 32 5.0 20.0 0.00 0.00 0.00 53 1014.3
20260503190508 58 300 4.0 14.0 0.00 0.00 0.00 56 1014.1
20260503190012 57 300 3.0 11.0 0.00 0.00 0.00 64 1014.3
20260503185504 58 196 3.0 11.0 0.00 0.00 0.00 55 1014.3
20260503185005 58 9 4.0 11.0 0.00 0.00 0.00 57 1014.4
20260503184515 58 243 4.0 11.0 0.00 0.00 0.00 67 1014.4
20260503183511 56 80 5.0 17.0 0.00 0.00 0.00 57 1014.4
20260503183004 56 45 5.0 17.0 0.00 0.00 0.00 56 1014.5
20260503182503 56 54 4.0 14.0 0.00 0.00 0.00 58 1014.6
20260503182005 57 164 4.0 17.0 0.00 0.00 0.00 62 1014.5
20260503181506 57 162 3.0 17.0 0.00 0.00 0.00 60 1014.7
20260503181005 57 294 3.0 13.0 0.00 0.00 0.00 58 1014.5
20260503180507 56 81 4.0 13.0 0.00 0.00 0.00 57 1014.6
20260503180010 56 291 6.0 14.0 0.00 0.00 0.00 58 1014.6
20260503175503 56 9 3.0 14.0 0.00 0.00 0.00 57 1014.7
20260503175002 56 265 4.0 14.0 0.00 0.00 0.00 58 1014.9
20260503174505 55 61 3.0 15.0 0.00 0.00 0.00 57 1014.7
20260503174009 56 157 3.0 15.0 0.00 0.00 0.00 64 1014.7
20260503173503 56 9 6.0 14.0 0.00 0.00 0.00 62 1015.0
20260503173002 56 338 4.0 15.0 0.00 0.00 0.00 60 1014.7
20260503172505 55 26 4.0 15.0 0.00 0.00 0.00 61 1014.8
20260503172006 54 16 5.0 13.0 0.00 0.00 0.00 58 1014.9
20260503171503 55 93 3.0 18.0 0.00 0.00 0.00 59 1014.9
20260503171006 54 18 4.0 18.0 0.00 0.00 0.00 66 1014.9
20260503170507 53 242 5.0 17.0 0.00 0.00 0.00 62 1015.0
20260503151002 51 275 4.0 13.0 0.00 0.00 0.00 66 1015.5
20260503150503 49 19 1.0 10.0 0.00 0.00 0.00 71 1015.5
20260503131003 45 135 3.0 13.0 0.00 0.00 0.00 74 1015.3
20260503130506 45 97 4.0 12.0 0.00 0.00 0.00 74 1015.4
20260503110505 43 9 1.0 4.0 0.00 0.00 0.00 78 1014.2